Tracking 27401 objects as of 3-Jun-2023
HD Live streaming from Space Station
objects crossing your sky now

BLOCK DM-SL R/B

Track BLOCK DM-SL R/B now!


NORAD ID: 39774
Int'l Code: 2014-030B
Perigee: 374.1 km
Apogee: 35,454.6 km
Inclination: 0.6 °
Period: 627.7 minutes
Semi major axis: 24285 km
RCS: Unknown
Launch date: May 26, 2014
Source: Sea Launch (SEAL)
Launch site: SEA LAUNCH (SEAL)

Note: This is a ROCKET BODY
Your satellite tracking list
Your tracking list is empty




NASA's NSSDC Master Catalog

Two Line Element Set (TLE):
1 39774U 14030B   23153.56865994  .00000572  00000-0  11514-2 0  9992
2 39774   0.5602 324.4090 7222561 140.9444 338.4651  2.29396104 75398
Source of the keplerian elements: AFSPC